Weather History for Wright-Patt AFB, OH

Change the Weather History Date:

Sunday, November 11, 2012

  Actual Average Record
Temperature  
Mean Temperature 58 °F -  
Max Temperature 67 °F 50 °F 69 °F (2010)
Min Temperature 49 °F 33 °F 23 °F (2008)
Degree Days  
Heating Degree Days 7    
Growing Degree Days 8 (Base 50)    
Moisture  
Dew Point 36 °F    
Average Humidity 44    
Maximum Humidity 60    
Minimum Humidity 31    
Precipitation  
Precipitation 0.00 in - - ()
Sea Level Pressure  
Sea Level Pressure 30.17 in    
Wind  
Wind Speed 12 mph (SSE)    
Max Wind Speed 28 mph    
Max Gust Speed 36 mph    
Visibility 10 miles    
Events      
Averages and records for this station are not official NWS values.
T = Trace of Precipitation, MM = Missing Value Source: NWS Daily Summary

Daily Weather History Graph

Daily Weather History Graph

Search for Another Location

Airport:

Trip Planner

Search our weather history database for the weather conditions in past years. The results will help you decide how hot, cold, wet, or windy it might be!

Date:

Astronomy

Nov. 11, 2012 Rise Set
Actual Time 7:16 AM EST 5:23 PM EST
Civil Twilight 6:48 AM EST 5:51 PM EST
Nautical Twilight 6:15 AM EST 6:24 PM EST
Astronomical Twilight 5:43 AM EST 6:56 PM EST
Moon 4:30 AM EST (11/11) 3:46 PM EST (11/11)
Length of Visible Light 11h 03m
Length of Day
10h 06m
Waning Crescent, 7% of the Moon is Illuminated
Nov 11
Waning Crescent
Nov 13
New
Nov 20
First Quarter
Nov 28
Full
Dec 6
Last Quarter

Hourly Weather History & Observations

Time (EST) Temp. Dew Point Humidity Pressure Visibility Wind Dir Wind Speed Gust Speed Precip Events Conditions
12:55 AM 53.6 °F 37.8 °F 55% 30.17 in 10.0 mi South 6.9 mph - N/A   Clear
1:55 AM 54.3 °F 36.9 °F 52% 30.17 in 10.0 mi SSE 9.2 mph - N/A   Clear
2:55 AM 52.7 °F 36.7 °F 55% 30.17 in 10.0 mi SSE 9.2 mph - N/A   Clear
3:55 AM 53.8 °F 36.9 °F 53% 30.18 in 10.0 mi SSE 10.4 mph - N/A   Partly Cloudy
4:55 AM 52.9 °F 36.3 °F 53% 30.20 in 10.0 mi South 9.2 mph - N/A   Partly Cloudy
5:55 AM 52.5 °F 36.7 °F 55% 30.22 in 10.0 mi SSE 8.1 mph - N/A   Partly Cloudy
6:55 AM 49.3 °F 35.8 °F 60% 30.24 in 10.0 mi SE 10.4 mph - N/A   Partly Cloudy
7:55 AM 49.1 °F 35.8 °F 60% 30.25 in 10.0 mi SSE 9.2 mph - N/A   Scattered Clouds
8:55 AM 52.7 °F 36.7 °F 55% 30.25 in 10.0 mi South 10.4 mph - N/A   Scattered Clouds
9:55 AM 59.2 °F 37.8 °F 45% 30.25 in 10.0 mi South 12.7 mph - N/A   Mostly Cloudy
10:55 AM 64.0 °F 37.6 °F 38% 30.24 in 10.0 mi South 16.1 mph - N/A   Mostly Cloudy
11:40 AM 66.2 °F 35.6 °F 32% 30.22 in 10.0 mi South 19.6 mph 29.9 mph N/A   Mostly Cloudy
11:55 AM 66.0 °F 35.6 °F 32% 30.22 in 10.0 mi South 25.3 mph 35.7 mph N/A   Scattered Clouds
12:55 PM 67.5 °F 35.8 °F 31% 30.19 in 10.0 mi South 27.6 mph 35.7 mph N/A   Scattered Clouds
1:55 PM 66.6 °F 34.9 °F 31% 30.16 in 10.0 mi South 21.9 mph 27.6 mph N/A   Mostly Cloudy
2:55 PM 65.5 °F 35.4 °F 33% 30.14 in 10.0 mi South 15.0 mph - N/A   Mostly Cloudy
3:55 PM 65.8 °F 35.6 °F 33% 30.13 in 10.0 mi South 13.8 mph - N/A   Mostly Cloudy
4:55 PM 64.9 °F 34.3 °F 32% 30.12 in 10.0 mi SSE 13.8 mph - N/A   Mostly Cloudy
5:55 PM 62.8 °F 34.9 °F 35% 30.11 in 10.0 mi SSE 13.8 mph - N/A   Scattered Clouds
6:55 PM 61.0 °F 35.1 °F 38% 30.12 in 10.0 mi SSE 10.4 mph - N/A   Scattered Clouds
7:55 PM 59.9 °F 34.7 °F 39% 30.10 in 10.0 mi SSE 10.4 mph - N/A   Overcast
8:55 PM 60.8 °F 35.4 °F 39% 30.10 in 10.0 mi SSE 12.7 mph - N/A   Mostly Cloudy
9:55 PM 59.5 °F 36.1 °F 42% 30.08 in 10.0 mi SSE 11.5 mph - N/A   Scattered Clouds
10:55 PM 61.9 °F 38.8 °F 43% 30.06 in 10.0 mi South 19.6 mph 27.6 mph N/A   Mostly Cloudy
11:55 PM 62.1 °F 42.8 °F 49% 30.06 in 10.0 mi South 18.4 mph 32.2 mph N/A   Mostly Cloudy